Weather in Sawtell

Australia     30°21′46″S   153°06′09″E
temp.,
°C
wind,
m/s
gust,
m/s
humid.,
%
clouds,
%
prec.,
mm/h
press.,
hPa
HPBL,
m
14 april, wed
wed1401:00+11nw23830 0.0 102052
04:00+10nw23840 0.0 101960
07:00+12nw23730 0.0 101970
10:00+22nnw13390 0.0 1018824
13:00+25ene13310 0.0 10151376
16:00+22nne24513 0.0 1015564
19:00+15nw22740 0.0 101745
22:00+14wnw22791 0.0 101746
15 april, thu
thu1501:00+14wnw11675 0.0 101622
04:00+14wnw11660 0.0 101520
07:00+15wnw11675 0.0 101627
10:00+24e11395 0.0 1015744
13:00+25e22395 0.0 10131453
16:00+22e12550 0.0 1013364
19:00+17nw22770 0.0 101536
22:00+16wnw22750 0.0 101634
16 april, fri
fri1601:00+15w21715 0.0 101527
04:00+14ssw11725 0.0 101521
07:00+14ssw13745 0.0 101877
10:00+20sse24445 0.0 1019774
13:00+21se334544 0.0 1018994
16:00+19sse265387 0.0 1018932
19:00+16ssw288175 0.0 1021425
22:00+15sw158686 0.0 1021275
17 april, sat
sat1701:00+15ssw1588100 0.0 1020246
04:00+14sw1398100 0.5 1020100
07:00+14ssw13100100 1.9 1021134
10:00+15ssw13100100 4.1 1019202
13:00+15ssw13100100 10.2 1017198
16:00+14ssw1499100 17.0 1017176
19:00+13ssw31198100 3.6 1018778
22:00+13ssw4129773 4.0 1019824
18 april, sun
sun1801:00+12ssw3129293 0.2 1018648
04:00+13ssw3117958 0.2 1017775
07:00+14ssw3117141 0.0 1018877
10:00+18s5105913 0.0 10181335
13:00+19s595833 0.0 10171508
16:00+18s38634 0.0 10171351
19:00+14ssw3117075 0.0 1018605
22:00+13ssw311720 0.0 1019617